Flag for Monaco Weather past 2 weeks in Monaco, Monaco

46 °F

Broken clouds.

Feels Like: 41 °F
Forecast: 35 / 52 °F
Wind: 12 mph from North

Location: Nice Airport

Current Time: Nov 25, 2015 at 10:24:30 AM

Latest Report: Nov 25, 2015 at 10:00 AM

Visibility: N/A

Pressure: 29.80 "Hg

Humidity: 53%

Dew point: 30 °F

Location of MonacoLocation

Historic Weather in Monaco — Graph


Monaco temperature yesterday

Maximum temperature yesterday: 57 °F (at 12:30 PM)
Minimum temperature yesterday: 41 °F (at 7:00 AM)
Average temperature yesterday: 48 °F

Past Weeks' High & Low Weather Summary

High68 °F (Nov 18, 12:30 PM)88% (Nov 13, 7:30 PM)30.39 "Hg (Nov 13, 7:30 PM)
Low41 °F (Nov 24, 7:00 AM)16% (Nov 21, 2:30 PM)29.18 "Hg (Nov 21, 1:00 PM)
Average57 °F64%30.06 "Hg
* Reported Nov 10 9:00 AM — Nov 25 9:00 AM, Monaco, Weather by CustomWeather, © 2015

Note: Actual official high and low records may vary slightly from our data, if they occured in-between our weather recording intervals... More about our weather records


Monaco weather history for previous 24 hours

Time TempWeatherWind HumidityBarometerVisibility
9:00 AM
Wed, Nov 25
45 °FBroken clouds.12 mph53%29.83 "HgN/A
8:30 AM45 °FPartly sunny.10 mph53%29.83 "HgN/A
8:00 AM45 °FPartly sunny.12 mph53%29.86 "HgN/A
7:30 AM45 °FPassing clouds.9 mph53%29.86 "HgN/A
6:30 AM45 °FClear.9 mph53%29.86 "Hg10 mi
6:00 AM43 °FClear.10 mph57%29.89 "Hg10 mi
5:30 AM43 °FClear.13 mph57%29.89 "Hg10 mi
5:00 AM45 °FClear.9 mph53%29.89 "Hg10 mi
4:30 AM45 °FClear.10 mph53%29.92 "Hg10 mi
4:00 AM45 °FClear.12 mph53%29.92 "Hg10 mi
3:30 AM45 °FClear.9 mph53%29.95 "Hg10 mi
3:00 AM45 °FClear.10 mph53%29.95 "Hg10 mi
2:30 AM46 °FClear.12 mph53%29.98 "Hg10 mi
2:00 AM46 °FClear.9 mph53%29.98 "Hg10 mi
1:30 AM46 °FClear.12 mph53%30.01 "Hg10 mi
12:30 AM45 °FClear.9 mph57%30.04 "Hg10 mi
12:00 AM45 °FPassing clouds.9 mph57%30.04 "HgN/A
11:30 PM
Tue, Nov 24
45 °FPartly cloudy.10 mph57%30.07 "HgN/A
11:00 PM45 °FPassing clouds.12 mph57%30.07 "HgN/A
10:30 PM45 °FPassing clouds.9 mph57%30.07 "HgN/A
9:30 PM45 °FPassing clouds.9 mph61%30.09 "HgN/A
9:00 PM45 °FPassing clouds.9 mph61%30.09 "HgN/A
8:30 PM45 °FPassing clouds.7 mph66%30.09 "HgN/A
8:00 PM45 °FPassing clouds.8 mph66%30.09 "HgN/A
7:30 PM46 °FPassing clouds.8 mph62%30.09 "HgN/A
7:00 PM48 °FPassing clouds.6 mph58%30.09 "HgN/A
6:30 PM50 °FClear.7 mph58%30.09 "Hg10 mi
6:00 PM52 °FPassing clouds.8 mph54%30.09 "HgN/A
5:30 PM55 °FClear.8 mph44%30.09 "Hg10 mi
5:00 PM55 °FClear.7 mph47%30.12 "Hg10 mi
4:30 PM57 °FSunny.8 mph44%30.12 "Hg10 mi
4:00 PM57 °FSunny.10 mph41%30.12 "Hg10 mi
3:30 PM57 °FSunny.12 mph41%30.12 "Hg10 mi
3:00 PM57 °FSunny.10 mph41%30.12 "Hg10 mi
2:30 PM57 °FSunny.10 mph41%30.12 "Hg10 mi
2:00 PM57 °FSunny.8 mph39%30.12 "Hg10 mi
1:30 PM57 °FPassing clouds.6 mph33%30.12 "HgN/A
1:00 PM57 °FPassing clouds.5 mph31%30.15 "HgN/A
12:30 PM57 °FSunny.3 mph27%30.15 "Hg10 mi
12:00 PM55 °FSunny.7 mph31%30.15 "Hg10 mi
11:36 AM54 °FSunny.9 mph33%30.15 "Hg10 mi
11:00 AM52 °FSunny.10 mph35%30.18 "Hg10 mi
10:30 AM50 °FSunny.12 mph35%30.18 "Hg10 mi
10:00 AM48 °FSunny.13 mph37%30.18 "Hg10 mi
Weather by CustomWeather, © 2015

See weather overviewHow to use our weather pages